Вернуться в каталог

STARLINK-30289

АктивенСвязьVLEO
NORAD 57653·PAYLOAD·🇺🇸 United States

Запущен Aug 17, 2023 с Cape Canaveral Space Force Station

Loading…

Ближайшие Пролёты (ближайшие 24 часа)

TLE

СвежийSource: CelesTrak SupGP

Эпоха: Sep 15, 2026, 01:58 UTC

1 57653C 23122X   26258.08243056  .00013580  00000+0  49176-3 0  2581
2 57653  43.0027  92.2606 0001490 267.7188 223.5982 15.27578594    17

Отслеживайте STARLINK-30289 в реальном времени с AllMySat

Download on the App Store